Tracking 28790 objects as of 19-Apr-2024
HD Live streaming from Space Station
objects crossing your sky now

CZ-3B DEB

Track CZ-3B DEB now!


NORAD ID: 40185
Int'l Code: 2011-077J
Perigee: 596.7 km
Apogee: 41,317.4 km
Inclination: 25.2 °
Period: 749.3 minutes
Semi major axis: 27328 km
RCS: Unknown
Launch date: December 19, 2011
Source: People's Republic of China (PRC)
Launch site: Xichang Space Center, China (XSC)

Note: This is SATELLITE DEBRIS
Your satellite tracking list
Your tracking list is empty




NASA's NSSDC Master Catalog

Two Line Element Set (TLE):
1 40185U 11077J   24109.47075445  .00000245  00000-0  23773-2 0  9991
2 40185  25.1927 107.6757 7450341 233.7652  33.1222  1.92172017 70113
Source of the keplerian elements: AFSPC